This is the latest recevied weather packets stored in our database for station/object KP4OZ. If no packets are shown the sender has not sent any weather packets the latest 1 day(s).
| Time | Temp. | Humidity | Pressure | Rain* | Wind** | Luminosity | Snow |
|---|---|---|---|---|---|---|---|
| 1778011194 | 33.33° C | 50% | 1015.3 hPa | 0 mm | 1.79 m/s, 110° | - | - |
| 1778010892 | 33.89° C | 47% | 1015.4 hPa | 0 mm | 1.79 m/s, 59° | - | - |
| 1778010589 | 33.33° C | 50% | 1015.4 hPa | 0 mm | 1.34 m/s, 148° | - | - |
| 1778010286 | 33.33° C | 50% | 1015.6 hPa | 0 mm | 2.68 m/s, 173° | - | - |
| 1778009986 | 33.33° C | 49% | 1015.6 hPa | 0 mm | 3.58 m/s, 136° | - | - |
| 1778009684 | 33.33° C | 49% | 1015.5 hPa | 0 mm | 4.02 m/s, 159° | - | - |
| 1778009381 | 33.89° C | 49% | 1015.6 hPa | 0 mm | 1.34 m/s, 81° | - | - |
| 1778009080 | 33.89° C | 49% | 1015.6 hPa | 0 mm | 2.68 m/s, 111° | - | - |
| 1778008777 | 33.89° C | 49% | 1015.9 hPa | 0 mm | 1.79 m/s, 168° | - | - |
| 1778008476 | 33.33° C | 49% | 1015.6 hPa | 0 mm | 0.45 m/s, 116° | - | - |
| 1778008172 | 33.89° C | 48% | 1015.8 hPa | 0 mm | 2.68 m/s, 243° | - | - |
| 1778007867 | 33.89° C | 51% | 1015.9 hPa | 0 mm | 1.34 m/s, 47° | - | - |
| 1778007563 | 33.89° C | 49% | 1015.8 hPa | 0 mm | 2.68 m/s, 155° | - | - |
| 1778007260 | 33.89° C | 49% | 1015.8 hPa | 0 mm | 2.24 m/s, 91° | - | - |
| 1778006956 | 33.33° C | 51% | 1016 hPa | 0 mm | 2.24 m/s, 74° | - | - |
| 1778006653 | 33.33° C | 49% | 1016.1 hPa | 0 mm | 2.24 m/s, 66° | - | - |
| 1778006350 | 33.33° C | 47% | 1016.3 hPa | 0 mm | 2.24 m/s, 149° | - | - |
| 1778006047 | 33.33° C | 49% | 1016.1 hPa | 0 mm | 3.13 m/s, 80° | - | - |
| 1778005744 | 34.44° C | 49% | 1016.1 hPa | 0 mm | 1.79 m/s, 129° | - | - |
| 1778005440 | 34.44° C | 48% | 1016.1 hPa | 0 mm | 2.24 m/s, 102° | - | - |
| 1778005137 | 33.89° C | 50% | 1016.2 hPa | 0 mm | 0.89 m/s, 197° | - | - |
| 1778004834 | 34.44° C | 49% | 1016.4 hPa | 0 mm | 4.02 m/s, 111° | - | - |
| 1778004531 | 33.89° C | 49% | 1016.3 hPa | 0 mm | 1.79 m/s, 163° | - | - |
| 1778004227 | 33.89° C | 50% | 1016.5 hPa | 0 mm | 3.58 m/s, 198° | - | - |
| 1778003924 | 33.33° C | 51% | 1016.4 hPa | 0 mm | 2.24 m/s, 137° | - | - |
* Rain latest hour (hover to see other rain measurements)
** Current wind speed in m/s (hover to see current wind gust speed)